This is the latest recevied weather packets stored in our database for station/object DL4JCP-6. If no packets are shown the sender has not sent any weather packets the latest 1 day(s).
| Time | Temp. | Humidity | Pressure | Rain* | Wind** | Luminosity | Snow |
|---|---|---|---|---|---|---|---|
| 1778049194 | 11.11° C | 91% | 1007 hPa | 0 mm | - | - | - |
| 1778048296 | 11.11° C | 91% | 1007 hPa | 0 mm | - | - | - |
| 1778047395 | 11.11° C | 91% | 1006.7 hPa | 0 mm | - | - | - |
| 1778045594 | 10.56° C | 92% | 1006.7 hPa | 0 mm | - | - | - |
| 1778044707 | 10.56° C | 93% | 1006.5 hPa | 0 mm | - | - | - |
| 1778043794 | 10.56° C | 93% | 1006.7 hPa | 0 mm | - | - | - |
| 1778042894 | 10.56° C | 93% | 1006.7 hPa | 0 mm | - | - | - |
| 1778041094 | 10° C | 94% | 1006.4 hPa | 0 mm | - | - | - |
| 1778040196 | 9.44° C | 95% | 1006.2 hPa | 0 mm | - | - | - |
| 1778039293 | 10° C | 95% | 1006.2 hPa | 0 mm | - | - | - |
| 1778038393 | 9.44° C | 95% | 1006.2 hPa | 0 mm | - | - | - |
| 1778037493 | 10° C | 95% | 1006.5 hPa | 0 mm | - | - | - |
| 1778036593 | 10° C | 96% | 1006.4 hPa | 0 mm | - | - | - |
| 1778035693 | 9.44° C | 96% | 1006.5 hPa | 0 mm | - | - | - |
| 1778034793 | 9.44° C | 96% | 1006.6 hPa | 0 mm | - | - | - |
| 1778033893 | 9.44° C | 96% | 1006.6 hPa | 0 mm | - | - | - |
| 1778032993 | 9.44° C | 96% | 1006.6 hPa | 0 mm | - | - | - |
| 1778032093 | 8.89° C | 96% | 1006.5 hPa | 0 mm | - | - | - |
| 1778031193 | 9.44° C | 96% | 1006.7 hPa | 0 mm | - | - | - |
| 1778029392 | 9.44° C | 96% | 1007 hPa | 0 mm | - | - | - |
| 1778028497 | 8.89° C | 96% | 1006.8 hPa | 0 mm | - | - | - |
| 1778027592 | 8.89° C | 96% | 1007.1 hPa | 0 mm | - | - | - |
| 1778022192 | 10° C | 95% | 1007.2 hPa | 0 mm | - | - | - |
| 1778020392 | 10° C | 95% | 1007.6 hPa | 0 mm | - | - | - |
| 1778019492 | 10° C | 95% | 1007.8 hPa | 0.76 mm | - | - | - |
* Rain latest hour (hover to see other rain measurements)
** Current wind speed in m/s (hover to see current wind gust speed)